This demonstration page uses our WeatherBlox Daily Observations layout. Learn more.

Hourly Observations for July 4, 2020

Temp ( °F °C ) Dew Point ( °F °C ) Humidity (%) Winds ( mph kmh ) Pressure ( in mb ) Visibility ( mi km ) Precip ( " mm )
12:54 am 00:54 Clear 73 22.8 68 20 84 84 NE 5 7 30.04 1017 9 14.48406 0 0
1:54 am 01:54 Clear 73 22.8 68 20 84 84 Calm 30.03 1017 9 14.48406 0 0
2:54 am 02:54 Clear 75 23.9 68 20 79 79 ESE 3 6 30.02 1017 10 16.0934 0 0
3:54 am 03:54 Clear 73 22.8 67 19.4 81 81 Calm 30.01 1016 10 16.0934 0 0
4:54 am 04:54 Clear 70 21.1 67 19.4 90 90 N 6 9 30.01 1016 8 12.87472 0 0
5:54 am 05:54 Clear 68 20 66 18.9 93 93 Calm 30.01 1016 8 12.87472 0 0
6:54 am 06:54 Sunny with Mist and Fog 71 21.7 67 19.4 87 87 N 3 6 30.02 1017 6 9.65604 0 0
7:54 am 07:54 Sunny 75 23.9 68 20 79 79 ENE 5 7 30.04 1017 9 14.48406 0 0
8:54 am 08:54 Sunny 78 25.6 67 19.4 69 69 E 8 13 30.04 1017 10 16.0934 0 0
9:54 am 09:54 Sunny 82 27.8 67 19.4 60 60 E 7 11 30.04 1017 10 16.0934 0 0
10:54 am 10:54 Mostly Sunny 83 28.3 67 19.4 59 59 E 7 11 30.04 1017 10 16.0934 0 0
11:54 am 11:54 Partly Cloudy 83 28.3 67 19.4 59 59 E 6 9 30.04 1017 10 16.0934 0 0
12:54 pm 12:54 Mostly Sunny 86 30 66 18.9 51 51 ENE 10 17 30.03 1017 10 16.0934 0 0
1:54 pm 13:54 Mostly Sunny 87 30.6 64 17.8 46 46 VRB 5 7 30.02 1017 10 16.0934 0 0
2:54 pm 14:54 Mostly Cloudy 87 30.6 66 18.9 50 50 NE 9 15 30 1016 10 16.0934 0 0
3:54 pm 15:54 Mostly Cloudy 88 31.1 66 18.9 48 48 ENE 8 13 29.99 1016 10 16.0934 0 0
4:54 pm 16:54 Partly Cloudy 89 31.7 66 18.9 47 47 VRB 7 11 29.97 1015 10 16.0934 0 0
5:54 pm 17:54 Partly Cloudy 87 30.6 65 18.3 48 48 E 7 11 29.96 1014 10 16.0934 0 0
6:54 pm 18:54 Mostly Sunny 86 30 64 17.8 48 48 SE 9 15 29.93 1014 10 16.0934 0 0
7:54 pm 19:54 Sunny 84 28.9 67 19.4 57 57 ESE 9 15 29.93 1014 10 16.0934 0 0
8:54 pm 20:54 Sunny 81 27.2 68 20 65 65 ESE 9 15 29.94 1014 10 16.0934 0 0
9:54 pm 21:54 Clear 79 26.1 68 20 69 69 SE 6 9 29.95 1014 8 12.87472 0 0
10:54 pm 22:54 Hazy 78 25.6 68 20 71 71 Calm 29.98 1015 3 4.82802 0 0
11:15 pm 23:15 Hazy 78 25.6 68 20 71 71 Calm 29.97 1015 2.5 4.02335 0 0
11:54 pm 23:54 Hazy 73 22.8 67 19.4 81 81 N 3 6 30 1016 1.5 2.41401 0 0

Powered by AerisWeather